Location: Gerlach
(40.6516°N, 119.3568°W)
Time: 04:20:19
(UTC-08:00)

Tiros 1 - All Passes

Search period start: 05 March 2024 00:00
Search period end: 15 March 2024 01:00
Orbit: 625 x 658 km, 48.4° (Epoch: 05 March)

Date Brightness Start Highest point End Pass type
(mag) Time Alt. Az. Time Alt. Az. Time Alt. Az.
05 Mar - 15:42:58 10° S 15:46:22 20° SE 15:49:48 10° E daylight
05 Mar - 17:23:15 10° WSW 17:28:00 88° NNW 17:32:47 10° ENE daylight
05 Mar - 19:06:07 10° WNW 19:10:30 36° N 19:14:56 10° NE visible
05 Mar - 20:49:03 10° WNW 20:53:26 35° N 20:57:50 10° ENE visible
05 Mar - 22:31:12 10° WNW 22:36:01 81° NNE 22:40:47 10° ESE visible
06 Mar - 00:13:59 10° W 00:17:43 23° SW 00:21:25 10° S night (unlit)
06 Mar - 16:05:54 10° SSW 16:10:20 42° SE 16:14:48 10° ENE daylight
06 Mar - 17:47:45 10° W 17:52:23 53° NNW 17:57:04 10° NE daylight
06 Mar - 19:30:54 10° WNW 19:35:10 32° N 19:39:28 10° ENE visible
06 Mar - 21:13:25 10° NW 21:18:02 46° NNE 21:22:38 10° E visible
06 Mar - 22:55:34 10° WNW 23:00:14 54° SW 23:04:52 10° SE night (unlit)
07 Mar - 14:49:53 10° S 14:52:56 17° SE 14:56:01 10° E daylight
07 Mar - 16:29:46 10° SW 16:34:29 84° SE 16:39:15 10° ENE daylight
07 Mar - 18:12:31 10° W 18:16:56 37° NNW 18:21:23 10° NE visible
07 Mar - 19:55:30 10° WNW 19:59:51 34° N 20:04:13 10° ENE visible
07 Mar - 21:37:41 10° WNW 21:42:29 73° NNE 21:47:15 10° ESE visible
07 Mar - 23:20:18 10° W 23:24:16 26° SW 23:28:12 10° SSE night (unlit)
08 Mar - 15:12:33 10° SSW 15:16:51 37° SE 15:21:13 10° ENE daylight
08 Mar - 16:54:11 10° WSW 16:58:49 57° NNW 17:03:32 10° NE daylight
08 Mar - 18:37:18 10° WNW 18:41:35 32° N 18:45:52 10° ENE visible
08 Mar - 20:19:54 10° NW 20:24:28 43° NNE 20:29:02 10° E visible
08 Mar - 22:02:01 10° WNW 22:06:44 62° SW 22:11:26 10° SE visible
08 Mar - 23:46:26 10° WSW 23:48:05 12° SW 23:49:45 10° SSW night (unlit)
09 Mar - 13:56:55 10° SSE 13:59:30 15° SE 14:02:08 10° E daylight
09 Mar - 15:36:17 10° SW 15:40:58 75° SSE 15:45:42 10° ENE daylight
09 Mar - 17:18:54 10° W 17:23:21 39° NNW 17:27:50 10° NE daylight
09 Mar - 19:01:57 10° WNW 19:06:15 33° N 19:10:35 10° ENE visible
09 Mar - 20:44:10 10° WNW 20:48:56 66° NNE 20:53:41 10° ESE visible
09 Mar - 22:26:38 10° WNW 22:30:48 30° SW 22:34:56 10° SSE visible
10 Mar - 15:19:15 10° SSW 15:23:23 32° SE 15:27:34 10° ENE daylight
10 Mar - 17:00:37 10° WSW 17:05:17 62° NNW 17:10:00 10° ENE daylight
10 Mar - 18:43:42 10° WNW 18:47:59 32° N 18:52:17 10° ENE daylight
10 Mar - 20:26:22 10° NW 20:30:53 40° NNE 20:35:24 10° E visible
10 Mar - 22:08:27 10° WNW 22:13:13 70° SW 22:17:58 10° SE visible
10 Mar - 23:52:15 10° W 23:54:39 14° SW 23:57:03 10° SSW night (unlit)
11 Mar - 14:04:06 10° SSE 14:06:05 13° SE 14:08:04 10° ESE daylight
11 Mar - 15:42:49 10° SW 15:47:26 66° SE 15:52:09 10° ENE daylight
11 Mar - 17:25:17 10° W 17:29:45 41° NNW 17:34:16 10° NE daylight
11 Mar - 19:08:22 10° WNW 19:12:39 32° N 19:16:57 10° ENE daylight
11 Mar - 20:50:39 10° WNW 20:55:22 60° NNE 21:00:06 10° ESE visible
11 Mar - 22:33:00 10° WNW 22:37:18 34° SW 22:41:36 10° SSE visible
12 Mar - 14:25:57 10° SSW 14:29:54 28° SE 14:33:55 10° ENE daylight
12 Mar - 16:07:02 10° WSW 16:11:43 68° NNW 16:16:27 10° ENE daylight
12 Mar - 17:50:05 10° WNW 17:54:22 33° N 17:58:41 10° ENE daylight
12 Mar - 19:32:49 10° NW 19:37:17 38° NNE 19:41:44 10° E visible
12 Mar - 21:14:55 10° WNW 21:19:41 78° SSW 21:24:27 10° SE visible
12 Mar - 22:58:18 10° W 23:01:12 16° SW 23:04:06 10° S visible
13 Mar - 13:11:45 10° SE 13:12:38 10° SE 13:13:32 10° ESE daylight
13 Mar - 14:49:22 10° SW 14:53:56 58° SE 14:58:34 10° ENE daylight
13 Mar - 16:31:41 10° W 16:36:10 44° NNW 16:40:43 10° NE daylight
13 Mar - 18:14:47 10° WNW 18:19:01 32° N 18:23:18 10° ENE daylight
13 Mar - 19:57:06 10° NW 20:01:47 55° NNE 20:06:29 10° ESE visible
13 Mar - 21:39:22 10° WNW 21:43:48 39° SW 21:48:14 10° SSE visible
14 Mar - 13:32:42 10° S 13:36:26 24° SE 13:40:12 10° E daylight
14 Mar - 15:13:29 10° WSW 15:18:09 75° NNW 15:22:53 10° ENE daylight
14 Mar - 16:56:28 10° WNW 17:00:45 34° N 17:05:05 10° ENE daylight
14 Mar - 18:39:16 10° NW 18:43:40 37° NNE 18:48:05 10° E daylight
14 Mar - 20:21:22 10° WNW 20:26:09 87° SSW 20:30:55 10° ESE visible
14 Mar - 22:04:26 10° W 22:07:44 19° SW 22:11:01 10° S visible
